• In Czech Republic
  • List of Countries
  • For 7 days
  • Water Temperature
  • Satellite Maps
  • Weather Map
  • Weather Widgets
  • user-avatar
    Login

    Hourly Weather Laszkar Gah

    Today, 17 January, Wednesday

    Time Temperature Precipitation Wind Pressure Humidity
    00:00 +7°C° 0 mm 5 mps 692 mmHg 27%
    01:00 +6°C° 0 mm 5 mps 693 mmHg 29%
    02:00 +6°C° 0 mm 5 mps 693 mmHg 31%
    03:00 +5°C° 0 mm 4 mps 693 mmHg 33%
    04:00 +5°C° 0 mm 4 mps 693 mmHg 35%
    05:00 +4°C° 0 mm 4 mps 693 mmHg 36%
    06:00 +4°C° 0 mm 4 mps 694 mmHg 37%
    07:00 +3°C° 0 mm 3 mps 694 mmHg 39%
    08:00 +5°C° 0 mm 3 mps 695 mmHg 35%
    09:00 +7°C° 0 mm 3 mps 695 mmHg 31%
    10:00 +9°C° 0 mm 3 mps 696 mmHg 25%
    11:00 +10°C° 0 mm 2 mps 696 mmHg 23%
    12:00 +13°C° 0 mm 2 mps 696 mmHg 20%
    13:00 +14°C° 0 mm 2 mps 695 mmHg 18%
    14:00 +14°C° 0 mm 2 mps 695 mmHg 17%
    15:00 +14°C° 0 mm 2 mps 695 mmHg 17%
    16:00 +15°C° 0 mm 2 mps 695 mmHg 15%
    17:00 +13°C° 0 mm 1 mps 695 mmHg 17%
    18:00 +12°C° 0 mm 1 mps 695 mmHg 19%
    19:00 +10°C° 0 mm 1 mps 695 mmHg 22%
    20:00 +10°C° 0 mm 1 mps 695 mmHg 22%
    21:00 +10°C° 0 mm 1 mps 695 mmHg 22%
    22:00 +9°C° 0 mm 2 mps 695 mmHg 22%
    23:00 +9°C° 0 mm 2 mps 695 mmHg 22%

    Tomorrow, 18 January, Thursday

    Time Temperature Precipitation Wind Pressure Humidity
    00:00 +9°C° 0 mm 3 mps 695 mmHg 22%
    01:00 +8°C° 0 mm 4 mps 695 mmHg 21%
    02:00 +8°C° 0 mm 4 mps 695 mmHg 22%
    03:00 +7°C° 0 mm 4 mps 694 mmHg 22%
    04:00 +7°C° 0 mm 4 mps 694 mmHg 22%
    05:00 +7°C° 0 mm 4 mps 694 mmHg 22%
    06:00 +7°C° 0 mm 4 mps 694 mmHg 22%
    07:00 +7°C° 0 mm 4 mps 695 mmHg 22%
    08:00 +9°C° 0 mm 5 mps 695 mmHg 19%
    09:00 +12°C° 0 mm 5 mps 695 mmHg 15%
    10:00 +14°C° 0 mm 6 mps 695 mmHg 12%
    11:00 +16°C° 0 mm 6 mps 695 mmHg 10%
    12:00 +17°C° 0 mm 6 mps 695 mmHg 9%
    13:00 +20°C° 0 mm 6 mps 694 mmHg 7%
    14:00 +20°C° 0 mm 5 mps 694 mmHg 7%
    15:00 +20°C° 0 mm 4 mps 694 mmHg 7%
    16:00 +20°C° 0 mm 3 mps 693 mmHg 7%
    17:00 +18°C° 0 mm 4 mps 693 mmHg 9%
    18:00 +17°C° 0 mm 4 mps 693 mmHg 10%
    19:00 +14°C° 0 mm 4 mps 693 mmHg 11%
    20:00 +14°C° 0 mm 4 mps 693 mmHg 12%
    21:00 +13°C° 0 mm 4 mps 693 mmHg 14%
    22:00 +13°C° 0 mm 3 mps 693 mmHg 15%
    23:00 +12°C° 0 mm 4 mps 694 mmHg 16%

    Day after tomorrow, 19 January, Friday

    Time Temperature Precipitation Wind Pressure Humidity
    00:00 +12°C° 0 mm 4 mps 694 mmHg 17%
    01:00 +11°C° 0 mm 4 mps 694 mmHg 18%
    02:00 +11°C° 0 mm 4 mps 694 mmHg 19%
    03:00 +10°C° 0 mm 4 mps 693 mmHg 20%
    04:00 +10°C° 0 mm 4 mps 693 mmHg 21%
    05:00 +10°C° 0 mm 4 mps 694 mmHg 22%
    06:00 +9°C° 0 mm 3 mps 694 mmHg 24%
    07:00 +9°C° 0 mm 3 mps 695 mmHg 25%
    08:00 +11°C° 0 mm 3 mps 696 mmHg 23%
    09:00 +13°C° 0 mm 3 mps 697 mmHg 21%
    10:00 +15°C° 0 mm 4 mps 697 mmHg 19%
    11:00 +17°C° 0 mm 3 mps 697 mmHg 18%
    12:00 +18°C° 0 mm 3 mps 697 mmHg 17%
    13:00 +19°C° 0 mm 3 mps 697 mmHg 16%
    14:00 +19°C° 0 mm 2 mps 697 mmHg 16%
    15:00 +19°C° 0 mm 2 mps 697 mmHg 15%
    16:00 +20°C° 0 mm 2 mps 697 mmHg 15%
    17:00 +18°C° 0 mm 2 mps 697 mmHg 17%
    18:00 +16°C° 0 mm 2 mps 697 mmHg 19%
    19:00 +15°C° 0 mm 2 mps 697 mmHg 21%
    20:00 +14°C° 0 mm 3 mps 697 mmHg 22%
    21:00 +13°C° 0 mm 3 mps 697 mmHg 22%
    22:00 +13°C° 0 mm 3 mps 697 mmHg 23%
    23:00 +13°C° 0 mm 4 mps 697 mmHg 24%

    20 January, Saturday

    Time Temperature Precipitation Wind Pressure Humidity
    00:00 +12°C° 0 mm 4 mps 697 mmHg 25%
    01:00 +12°C° 0 mm 4 mps 697 mmHg 26%
    02:00 +12°C° 0 mm 4 mps 696 mmHg 28%
    03:00 +11°C° 0 mm 4 mps 696 mmHg 29%
    04:00 +11°C° 0 mm 4 mps 696 mmHg 30%
    05:00 +11°C° 0 mm 4 mps 696 mmHg 30%
    06:00 +10°C° 0 mm 4 mps 696 mmHg 31%
    07:00 +10°C° 0 mm 4 mps 696 mmHg 32%
    08:00 +12°C° 0 mm 4 mps 697 mmHg 28%
    09:00 +15°C° 0 mm 4 mps 697 mmHg 24%
    10:00 +18°C° 0 mm 4 mps 697 mmHg 20%
    11:00 +19°C° 0 mm 4 mps 697 mmHg 19%
    12:00 +20°C° 0 mm 3 mps 696 mmHg 17%
    13:00 +21°C° 0 mm 3 mps 696 mmHg 16%
    14:00 +21°C° 0 mm 2 mps 695 mmHg 15%
    15:00 +21°C° 0 mm 2 mps 695 mmHg 15%
    16:00 +21°C° 0 mm 2 mps 694 mmHg 15%
    17:00 +20°C° 0 mm 2 mps 694 mmHg 16%
    18:00 +18°C° 0 mm 2 mps 694 mmHg 18%
    19:00 +16°C° 0 mm 2 mps 694 mmHg 20%
    20:00 +16°C° 0 mm 3 mps 694 mmHg 20%
    21:00 +16°C° 0 mm 3 mps 694 mmHg 20%
    22:00 +14°C° 0 mm 3 mps 694 mmHg 20%
    23:00 +14°C° 0 mm 3 mps 694 mmHg 21%

    21 January, Sunday

    Time Temperature Precipitation Wind Pressure Humidity
    00:00 +13°C° 0 mm 3 mps 693 mmHg 21%
    01:00 +13°C° 0 mm 3 mps 693 mmHg 22%
    02:00 +12°C° 0 mm 3 mps 693 mmHg 22%
    03:00 +12°C° 0 mm 3 mps 692 mmHg 22%
    04:00 +12°C° 0 mm 4 mps 692 mmHg 23%
    05:00 +11°C° 0 mm 4 mps 692 mmHg 23%
    06:00 +11°C° 0 mm 4 mps 692 mmHg 23%
    07:00 +11°C° 0 mm 4 mps 692 mmHg 23%
    08:00 +13°C° 0 mm 4 mps 693 mmHg 20%
    09:00 +15°C° 0 mm 5 mps 693 mmHg 17%
    10:00 +19°C° 0 mm 5 mps 694 mmHg 14%
    11:00 +20°C° 0 mm 5 mps 693 mmHg 14%
    12:00 +21°C° 0 mm 5 mps 692 mmHg 13%
    13:00 +22°C° 0 mm 5 mps 692 mmHg 12%
    14:00 +22°C° 0 mm 5 mps 691 mmHg 12%
    15:00 +22°C° 0 mm 5 mps 691 mmHg 12%
    16:00 +22°C° 0 mm 4 mps 690 mmHg 12%
    17:00 +20°C° 0 mm 5 mps 690 mmHg 14%
    18:00 +19°C° 0 mm 5 mps 690 mmHg 15%
    19:00 +16°C° 0 mm 5 mps 690 mmHg 16%
    20:00 +16°C° 0 mm 5 mps 689 mmHg 18%
    21:00 +15°C° 0 mm 5 mps 689 mmHg 19%
    22:00 +15°C° 0 mm 5 mps 689 mmHg 20%
    23:00 +14°C° 0 mm 5 mps 689 mmHg 20%

    22 January, Monday

    Time Temperature Precipitation Wind Pressure Humidity
    00:00 +14°C° 0 mm 4 mps 688 mmHg 21%
    01:00 +13°C° 0 mm 4 mps 688 mmHg 22%
    02:00 +13°C° 0 mm 5 mps 688 mmHg 22%
    03:00 +13°C° 0 mm 5 mps 688 mmHg 22%
    04:00 +13°C° 0 mm 5 mps 688 mmHg 23%
    05:00 +12°C° 0 mm 5 mps 688 mmHg 32%
    06:00 +10°C° 0 mm 5 mps 688 mmHg 41%
    07:00 +9°C° 0 mm 5 mps 689 mmHg 49%
    08:00 +10°C° 0.4 mm 4 mps 689 mmHg 54%
    09:00 +10°C° 0.4 mm 4 mps 689 mmHg 58%
    10:00 +10°C° 0.4 mm 3 mps 690 mmHg 63%
    11:00 +11°C° 0.4 mm 3 mps 689 mmHg 61%
    12:00 +12°C° 0.4 mm 2 mps 689 mmHg 60%
    13:00 +13°C° 0.4 mm 2 mps 689 mmHg 58%
    14:00 +13°C° 0 mm 2 mps 689 mmHg 57%
    15:00 +13°C° 0 mm 2 mps 689 mmHg 56%
    16:00 +13°C° 0 mm 2 mps 689 mmHg 54%
    17:00 +13°C° 0 mm 2 mps 689 mmHg 56%
    18:00 +11°C° 0 mm 3 mps 690 mmHg 58%
    19:00 +11°C° 0 mm 3 mps 690 mmHg 60%
    20:00 +10°C° 0 mm 3 mps 690 mmHg 63%
    21:00 +9°C° 0 mm 3 mps 691 mmHg 65%
    22:00 +9°C° 0 mm 3 mps 691 mmHg 67%
    23:00 +8°C° 0 mm 3 mps 691 mmHg 69%
    Show more